Location: USNO
(38.9242°N, 77.0663°W)
Time: 03:05:22
(UTC-04:00)

Vanguard 3 - All Passes

Search period start: 18 July 2018 00:00
Search period end: 28 July 2018 00:00
Orbit: 508 x 3264 km, 33.3° (Epoch: 17 July)

Date Brightness Start Highest point End Pass type
(mag) Time Alt. Az. Time Alt. Az. Time Alt. Az.
18 Jul - 01:11:07 10° WSW 01:12:55 12° SW 01:14:34 10° SSW visible
18 Jul - 15:03:13 10° SSE 15:08:02 12° SE 15:12:27 10° SE daylight
18 Jul - 17:08:42 10° SSW 17:22:26 31° SSE 17:31:40 10° E daylight
18 Jul - 19:22:56 10° WSW 19:36:12 52° SSE 19:43:42 10° E daylight
18 Jul - 21:39:09 10° W 21:48:47 57° S 21:54:15 10° ESE visible
18 Jul - 23:54:44 10° W 23:59:56 26° SSW 00:03:37 10° SSE visible
19 Jul - 15:54:19 10° SSW 16:07:00 24° SSE 16:16:38 10° ESE daylight
19 Jul - 18:06:25 10° SW 18:21:17 45° SSE 18:30:16 10° E daylight
19 Jul - 20:22:27 10° WSW 20:34:39 60° S 20:41:23 10° E daylight
19 Jul - 22:38:43 10° W 22:46:39 44° SSW 22:51:27 10° SE visible
20 Jul - 00:55:51 10° SW 00:57:00 11° SW 00:58:05 10° SSW visible
20 Jul - 14:42:10 10° S 14:51:25 16° SE 14:59:25 10° ESE daylight
20 Jul - 16:50:30 10° SSW 17:05:58 37° SSE 17:16:18 10° E daylight
20 Jul - 19:05:28 10° WSW 19:20:02 58° S 19:28:16 10° E daylight
20 Jul - 21:22:15 10° W 21:32:54 58° S 21:38:52 10° ESE visible
20 Jul - 23:38:26 10° W 23:44:04 25° SSW 23:47:58 10° SSE visible
21 Jul - 15:35:41 10° SSW 15:50:20 29° SSE 16:01:25 10° E daylight
21 Jul - 17:48:39 10° SW 18:04:54 51° SSE 18:14:47 10° E daylight
21 Jul - 20:05:15 10° WSW 20:18:37 64° S 20:25:58 10° E daylight
21 Jul - 22:22:02 10° W 22:30:47 43° SSW 22:35:58 10° SE visible
22 Jul - 14:22:42 10° S 14:34:38 20° SE 14:44:52 10° ESE daylight
22 Jul - 16:32:29 10° SW 16:49:21 43° SSE 17:00:46 10° E daylight
22 Jul - 18:48:00 10° WSW 19:03:47 62° S 19:12:46 10° E daylight
22 Jul - 21:05:14 10° W 21:16:56 58° SSW 21:23:25 10° ESE visible
22 Jul - 23:22:03 10° W 23:28:06 24° SW 23:32:17 10° SSE visible
23 Jul - 13:14:43 10° SSE 13:19:01 11° SE 13:23:11 10° ESE daylight
23 Jul - 15:17:24 10° SSW 15:33:31 33° SSE 15:45:55 10° E daylight
23 Jul - 17:30:59 10° SW 17:48:24 56° SSE 17:59:11 10° E daylight
23 Jul - 19:47:59 10° W 20:02:28 66° S 20:10:29 10° ESE daylight
23 Jul - 22:05:14 10° W 22:14:48 42° SSW 22:20:26 10° SE visible
24 Jul - 14:03:55 10° S 14:17:42 24° SE 14:29:40 10° E daylight
24 Jul - 16:14:39 10° SW 16:32:36 48° SSE 16:45:04 10° E daylight
24 Jul - 18:30:33 10° WSW 18:47:25 66° S 18:57:11 10° E daylight
24 Jul - 20:48:08 10° W 21:00:52 58° SSW 21:07:56 10° ESE visible
24 Jul - 23:05:34 10° W 23:12:03 23° SW 23:16:31 10° SSE visible
25 Jul - 12:53:29 10° SSE 13:02:04 14° SE 13:10:19 10° ESE daylight
25 Jul - 14:59:24 10° SSW 15:16:35 38° SSE 15:30:12 10° E daylight
25 Jul - 17:13:24 10° WSW 17:31:47 61° SSE 17:43:29 10° E daylight
25 Jul - 19:30:41 10° W 19:46:15 67° S 19:54:57 10° ESE daylight
25 Jul - 21:48:20 10° W 21:58:43 40° SSW 22:04:51 10° SE visible
26 Jul - 13:45:37 10° S 14:00:38 28° SE 14:14:05 10° E daylight
26 Jul - 15:56:59 10° SW 16:15:44 53° SSE 16:29:15 10° E daylight
26 Jul - 18:13:08 10° WSW 18:30:56 69° S 18:41:33 10° E daylight
26 Jul - 20:30:58 10° W 20:44:41 57° SSW 20:52:22 10° ESE daylight
26 Jul - 22:49:01 10° W 22:55:53 22° SW 23:00:40 10° S visible
27 Jul - 12:34:12 10° S 12:44:59 18° SE 12:55:35 10° E daylight
27 Jul - 14:41:39 10° SSW 14:59:31 43° SSE 15:14:16 10° E daylight
27 Jul - 16:55:56 10° WSW 17:15:02 65° SSE 17:27:42 10° E daylight
27 Jul - 19:13:21 10° W 19:29:54 67° S 19:39:20 10° ESE daylight
27 Jul - 21:31:20 10° W 21:42:31 39° SSW 21:49:12 10° SE visible
